Location: ??????
(30.5519°N, 47.7720°E)
Time: 18:05:01
(UTC+00:00)

BREEZE-M DEB (TANK) - Pass Details

Date: 24 January 2021
Orbit: 308 x 15409 km, 49.5° (Epoch: 01 March)

Event Time Altitude Azimuth Distance (km) Brightness Sun altitude
Rises 15:52:15 0° 211° (SSW) 3,155 6.8 -20.2°
Reaches altitude 10° 15:55:24 10° 199° (SSW) 1,571 5.0 -20.9°
Enters shadow 15:56:39 18° 182° (S) 1,012 3.8 -21.2°
